Location: Balls_Creek
(35.6670°N, 81.1170°W)
Time: 03:00:46
(UTC-05:00)

Daily predictions for brighter satellites

Satellite Brightness Start Highest point End
(mag) Time Altitude Azimuth Time Altitude Azimuth Time Altitude Azimuth
CZ-3 R/B 4.3 04:30:21 43° SW 04:31:38 43° SW 04:42:31 10° SSE
Cosmos 2237 Rocket 4.1 04:56:09 19° S 04:56:09 19° S 04:57:42 10° S
SL-16 R/B 2.7 04:57:16 55° NE 04:57:43 57° ENE 05:03:16 10° SE
OAO 2 Rocket 4.3 04:59:36 44° ESE 04:59:36 44° ESE 05:02:57 10° E
Cosmos 2297 Rocket 4.3 05:05:23 14° N 05:05:23 14° N 05:06:14 10° N
Thor Agena Rocket 4.0 04:57:43 10° SSE 05:01:54 57° SE 05:01:54 57° SE
Cosmos 968 Rocket 4.0 05:06:47 53° NE 05:06:47 53° NE 05:10:50 10° NNE
ISS -0.3 05:09:16 17° E 05:09:16 17° E 05:10:13 10° ESE
USA 229 DEB 3.7 05:13:19 56° NW 05:15:03 84° WSW 05:22:18 10° SSE
USA 229 3.7 05:13:22 55° NW 05:15:09 84° WSW 05:22:24 10° SSE
Centaur AC-42 4.1 05:18:22 14° S 05:19:44 16° S 05:23:57 10° SE
Tsikada Rocket 3.9 05:19:15 62° NW 05:20:02 69° W 05:26:15 10° S
Meteor 1-16 Rocket 4.5 05:17:12 10° S 05:22:34 63° E 05:27:50 10° NNE
SKYMED 2 4.4 05:20:48 10° SSE 05:24:58 48° ENE 05:27:32 21° N
Cosmos 1271 Rocket 3.7 05:21:34 10° SSE 05:25:14 44° E 05:28:51 10° NNE
NOAA 6 3.9 05:25:30 10° NNE 05:30:43 85° WNW 05:35:54 10° SSW
Cosmos 2221 3.6 05:32:24 10° SSE 05:36:31 44° E 05:40:38 10° NNE
Cosmos 1340 Rocket 4.0 05:34:58 12° N 05:38:18 40° ENE 05:42:03 10° SSE
SL-14 R/B 3.4 05:41:34 27° N 05:43:41 74° E 05:47:44 10° SSE
Cosmos 1777 Rocket 3.9 05:40:44 10° SSW 05:45:57 88° WNW 05:51:12 10° NNE
BREEZE-M DEB (TANK) 4.1 05:49:40 31° SW 05:49:40 31° SW 05:51:58 10° S
ATLAS 3B CENTAUR R/B 4.4 05:47:25 10° SSW 05:52:43 32° SE 06:05:07 10° E
Cosmos 1072 Rocket 4.5 05:46:34 10° S 05:52:44 83° E 05:58:53 10° N
Tiangong 2 1.4 05:53:42 54° S 05:53:59 57° SSE 05:57:04 10° ENE
Meteor 2-1 Rocket 4.2 05:52:39 10° S 05:58:14 85° E 06:03:59 10° N
Cosmos 2263 Rocket 3.9 05:54:06 10° SSE 05:59:12 35° ESE 06:04:20 10° NE
ERBS 2.5 05:59:49 44° NNW 06:00:44 70° NE 06:04:07 10° SE
Cosmos 1603 3.9 05:56:20 10° NNW 06:01:58 71° ENE 06:07:36 10° SSE
Aureole 1 4.1 06:01:28 48° SW 06:02:09 67° WNW 06:05:37 10° NNE
Cosmos 2151 2.9 05:59:21 19° NNW 06:02:18 65° W 06:06:30 10° S
IUS-9 SRM-1 4.1 06:02:39 16° SW 06:05:04 22° SSW 06:07:16 10° SE
DELTA 2 R/B (1) 3.5 06:04:53 27° WSW 06:08:02 82° NNW 06:13:37 10° ENE
NOSS 3-1 (C) 4.1 06:01:36 13° NNW 06:08:51 87° WSW 06:17:18 10° SSE
COSMO-SKYMED 1 2.9 06:08:51 10° S 06:12:58 44° W 06:16:07 16° NNW
Cosmos 1538 Rocket 4.3 06:13:23 15° NNW 06:17:38 47° WSW 06:22:43 10° S
CZ-2C R/B 3.3 06:15:13 10° NNE 06:19:40 48° E 06:24:04 10° S
CSL-04 Rocket 3.5 06:15:38 10° N 06:20:55 75° WNW 06:26:10 10° SSW
IDEFIX/ARIANE 42P 3.4 06:15:51 10° NNE 06:21:02 54° E 06:26:09 10° S
EP 2 4.2 06:18:28 10° SSW 06:21:07 82° ESE 06:23:45 10° NNE
Cosmos 1805 Rocket 3.5 06:17:45 10° N 06:22:11 87° E 06:26:33 10° S
CZ-4 R/B 2.1 06:20:13 10° NNE 06:24:16 59° E 06:28:20 10° S
Ariane Rocket 3.1 06:19:42 10° N 06:24:41 54° WNW 06:29:38 10° SSW
Cosmos 2228 Rocket 4.4 06:20:53 10° SSE 06:25:05 43° E 06:29:16 10° NNE
Cosmos 923 Rocket 4.0 06:19:57 10° NNW 06:25:13 86° ENE 06:30:29 10° SSE
Genesis I 3.2 06:24:37 17° NW 06:27:32 65° WSW 06:31:23 10° SSE
SL-8 R/B 4.4 06:25:32 15° NW 06:29:20 48° NNE 06:33:58 10° ESE
GPS 2-05 Rocket1 2.6 06:30:13 22° W 06:32:10 89° SSE 06:35:29 10° E
CZ-3 Stage 3 3.6 06:28:59 14° WSW 06:32:52 50° S 06:51:40 10° ESE
Cosmos 1680 Rocket 3.7 06:27:57 10° NNW 06:33:17 78° ENE 06:38:36 10° SSE
AQUARIUS 4.5 06:35:26 10° NNE 06:39:56 73° E 06:44:25 10° S
SL-16 R/B 3.7 06:39:13 14° WNW 06:41:14 17° W 06:44:41 10° SW
OAO 2 Rocket 3.8 06:38:34 13° W 06:42:39 47° SSW 06:47:21 10° SE
Sich 1 3.0 06:38:35 10° N 06:42:57 85° W 06:47:14 10° S
ISS -1.6 06:41:57 14° W 06:43:32 19° SW 06:45:53 10° S
Cosmos 2034 Rocket 4.1 06:41:49 10° SSW 06:47:48 52° W 06:53:53 10° N
Cosmos 1328 Rocket 3.7 06:43:48 10° S 06:48:06 78° E 06:52:28 10° N
Cosmos 1633 Rocket 3.0 06:43:45 10° N 06:48:07 86° W 06:52:27 10° S
Coronas F rocket 0.8 06:46:15 10° N 06:48:39 87° W 06:51:01 10° S
PAYLOAD A 4.0 06:44:11 10° N 06:49:00 51° WNW 06:53:37 10° SSW
MSX 4.3 06:46:41 10° NNE 06:52:27 68° ESE 06:58:11 10° S
Cosmos 389 Rocket 2.7 06:49:43 10° SSW 06:53:18 53° W 06:56:55 10° N
Nadezhda 4 Rocket 4.0 06:47:59 10° N 06:54:18 80° W 07:00:34 10° S
Cosmos 1703 4.0 06:51:37 10° NNW 06:55:08 32° W 06:58:38 10° SSW
Cosmos 1515 Rocket 3.9 06:52:28 10° S 06:56:51 72° E 07:01:16 10° NNE
Cosmos 1151 Rocket 4.1 06:55:55 10° SSE 07:00:02 49° E 07:04:10 10° NNE
Gbstr 26 Del rocket 3.8 06:55:42 10° WSW 07:01:01 68° NW 07:07:45 10° NE
Cosmos 2344 3.6 06:55:34 10° SW 07:03:13 70° NW 07:11:37 10° NNE
Cosmos 1626 2.9 07:00:32 10° NNW 07:03:52 31° W 07:07:10 10° SSW
CZ-4 R/B 4.4 07:00:43 10° N 07:04:51 86° WNW 07:08:58 10° SSW
PSLV R/B 4.4 07:02:01 10° WNW 07:05:06 31° N 07:08:08 10° ENE
Cosmos 1937 Rocket 3.9 07:00:08 10° S 07:05:15 70° ESE 07:10:21 10° NNE
